This is the latest recevied weather packets stored in our database for station/object DO2HBA-6. If no packets are shown the sender has not sent any weather packets the latest 10 day(s).
| Time | Temp. | Humidity | Pressure | Rain* | Wind** | Luminosity | Snow |
|---|---|---|---|---|---|---|---|
| 1778053540 | 17.22° C | 10% | 1008.6 hPa | 0 mm | - | - | - |
| 1778053240 | 17.22° C | 10% | 1008.6 hPa | 0 mm | - | - | - |
| 1778052940 | 16.67° C | 10% | 1008.6 hPa | 0 mm | - | - | - |
| 1778052639 | 16.67° C | 10% | 1008.7 hPa | 0 mm | - | - | - |
| 1778052339 | 16.67° C | 10% | 1008.7 hPa | 0 mm | - | - | - |
| 1778052039 | 16.11° C | 10% | 1008.6 hPa | 0 mm | - | - | - |
| 1778051738 | 16.11° C | 10% | 1008.7 hPa | 0 mm | - | - | - |
| 1778051438 | 16.11° C | 10% | 1008.8 hPa | 0 mm | - | - | - |
| 1778051138 | 15.56° C | 10% | 1008.8 hPa | 0 mm | - | - | - |
| 1778050837 | 15.56° C | 10% | 1008.7 hPa | 0 mm | - | - | - |
| 1778050537 | 15.56° C | 10% | 1008.8 hPa | 0 mm | - | - | - |
| 1778050237 | 15° C | 10% | 1008.7 hPa | 0 mm | - | - | - |
| 1778049937 | 15° C | 10% | 1008.7 hPa | 0 mm | - | - | - |
| 1778049636 | 15° C | 10% | 1008.8 hPa | 0 mm | - | - | - |
| 1778049336 | 15° C | 10% | 1008.9 hPa | 0 mm | - | - | - |
| 1778049036 | 15° C | 10% | 1008.9 hPa | 0 mm | - | - | - |
| 1778048735 | 15.56° C | 10% | 1008.9 hPa | 0 mm | - | - | - |
| 1778048435 | 15.56° C | 10% | 1008.9 hPa | 0 mm | - | - | - |
| 1778048135 | 15.56° C | 10% | 1008.9 hPa | 0 mm | - | - | - |
| 1778047834 | 15° C | 10% | 1008.8 hPa | 0 mm | - | - | - |
| 1778047534 | 15° C | 10% | 1008.7 hPa | 0 mm | - | - | - |
| 1778047234 | 15° C | 10% | 1008.7 hPa | 0 mm | - | - | - |
| 1778046934 | 15° C | 10% | 1008.7 hPa | 0 mm | - | - | - |
| 1778046633 | 15° C | 10% | 1008.8 hPa | 0 mm | - | - | - |
| 1778046333 | 15° C | 10% | 1008.6 hPa | 0 mm | - | - | - |
* Rain latest hour (hover to see other rain measurements)
** Current wind speed in m/s (hover to see current wind gust speed)